Flag for U.S.A. Weather past 2 weeks in Cape Canaveral, Florida, U.S.A.

Now
65 °F

Passing clouds.


Feels Like: 65 °F
Forecast: 63 / 73 °F
Wind: 15 mph from North

Location: Cape Kennedy


UV Index: 7 (High)

Visibility: 10 mi


Pressure: 29.95 "Hg

Humidity: 86%

Dew point: 61 °F

Location of Cape CanaveralLocation

Historic Weather in Cape Canaveral

°F

Cape Canaveral temperature yesterday

Maximum temperature yesterday: 80 °F (at 3:58 PM)
Minimum temperature yesterday: 66 °F (at 10:58 PM)
Average temperature yesterday: 73 °F

Past Weeks' High & Low Weather Summary

 TemperatureHumidityPressure
High85 °F (Apr 15, 12:58 PM)100% (Apr 5, 7:58 AM)30.31 "Hg (Apr 5, 7:58 AM)
Low50 °F (Apr 10, 2:58 AM)30% (Apr 6, 12:58 PM)29.70 "Hg (Apr 8, 3:58 PM)
Average72 °F74%30.03 "Hg
* Reported Apr 5 5:58 AM — Apr 20 5:58 AM, Cape Canaveral, Weather by CustomWeather, © 2014

Note: Actual official high and low records may vary slightly from our data, if they occured in-between our weather recording intervals... More about our weather records

Advertising

Historic Weather Conditions — Data for Previous 24 hours

 ConditionsComfort  
Time TempWeatherWind HumidityBarometerVisibility
5:58 AM
Apr 20
65 °FPassing clouds.15 mph86%29.95 "Hg10 mi
4:58 AM64 °FPassing clouds.18 mph94%29.93 "Hg10 mi
3:58 AM64 °FPassing clouds.12 mph87%29.93 "Hg10 mi
2:58 AM64 °FPassing clouds.10 mph83%29.94 "Hg10 mi
2:03 AM64 °FPartly cloudy.9 mph78%29.95 "Hg10 mi
1:58 AM65 °FPassing clouds.12 mph76%29.96 "Hg10 mi
12:58 AM65 °FPassing clouds.9 mph75%29.98 "Hg10 mi
11:58 PM
Apr 19
66 °FOvercast.12 mph73%29.97 "Hg10 mi
10:58 PM66 °FClear.12 mph77%29.96 "Hg10 mi
9:58 PM67 °FClear.10 mph76%29.95 "Hg10 mi
8:58 PM69 °FClear.13 mph70%29.93 "Hg10 mi
7:58 PM71 °FSunny.15 mph67%29.91 "Hg10 mi
6:58 PM74 °FSunny.15 mph63%29.89 "Hg10 mi
5:58 PM77 °FSunny.12 mph53%29.88 "Hg10 mi
4:58 PM80 °FSunny.14 mph51%29.86 "Hg10 mi
3:58 PM80 °FSunny.14 mph55%29.87 "Hg10 mi
2:58 PM79 °FSunny.10 mph60%29.89 "Hg10 mi
1:58 PM77 °FPassing clouds.13 mph65%29.91 "Hg10 mi
12:58 PM77 °FPassing clouds.13 mph66%29.91 "Hg10 mi
11:58 AM77 °FSunny.13 mph69%29.92 "Hg10 mi
10:58 AM78 °FSunny.17 mph71%29.92 "Hg10 mi
9:58 AM75 °FSunny.13 mph79%29.92 "Hg10 mi
8:58 AM74 °FThundershowers. Sunny.12 mph85%29.92 "Hg9 mi
7:58 AM71 °FSunny.9 mph90%29.92 "Hg7 mi
6:58 AM71 °FClear.7 mph93%29.91 "Hg7 mi
Weather by CustomWeather, © 2014

See weather overview